Regional Weather Roundup
Issued by NWS Cleveland, OH

Home | Current Version | Previous Version | Graphics & Text | Print | Product List | Glossary On
Versions: 1 2 3 4 5 6 7 8 9 10 11 12 13 14 15 16 17 18 19 20 21 22 23 24 25 26 27 28 29 30 31 32 33 34 35 36 37 38 39 40 41 42 43 44 45 46 47 48 49 50
000
ASUS41 KCLE 182002
RWRCLE
OHIO REGIONAL WEATHER ROUNDUP
NATIONAL WEATHER SERVICE CLEVELAND, OH
400 PM EDT FRI APR 18 2014

NOTE: "FAIR" INDICATES FEW OR NO CLOUDS BELOW 12,000 FEET WITH NO
SIGNIFICANT WEATHER AND/OR OBSTRUCTIONS TO VISIBILITY.

OHZ001>008-015>018-024>027-034-035-043-044-182100-
   NORTHWEST OHIO

CITY           SKY/WX    TMP DP  RH WIND       PRES   REMARKS
DEFIANCE       PTSUNNY   68  39  34 NW14G21   30.24F
FINDLAY        PTSUNNY   67  40  37 W14       30.23F
TOLEDO EXPRESS PTSUNNY   65  38  36 W13G24    30.23F
TOLEDO EXEC    MOSUNNY   67  40  37 W16       30.24F
LIMA           PTSUNNY   67  40  37 W12       30.24F
$$

OHZ009>014-019>023-028>033-038-089-182100-
   NORTHEAST OHIO

CITY           SKY/WX    TMP DP  RH WIND       PRES   REMARKS
CLE-HOPKINS    CLOUDY    63  40  42 N10       30.27F
CLE-LAKEFRONT  CLOUDY    57  45  64 NE5       30.24F
CUY CO. ARPT   CLOUDY    61  39  44 NW12      30.27S
LORAIN-ELYRIA  CLOUDY    65  41  41 N9        30.25S
ASHTABULA      PTSUNNY   61  39  44 NW8       30.25F
AKRON-CANTON   PTSUNNY   69  34  28 SW9       30.24F
WOOSTER        MOSUNNY   65  37  35 W13       30.24F
MANSFIELD      CLOUDY    64  38  38 W7        30.25F
YOUNGSTOWN     PTSUNNY   66  33  29 W16       30.22F
$$

OHZ042-051>053-060>062-070>072-077>081-182100-
  SOUTHWEST OHIO

CITY           SKY/WX    TMP DP  RH WIND       PRES   REMARKS
CINC-COVINGTON PTSUNNY   69  38  32 S8        30.25F
CINC-LUNKEN    MOSUNNY   68  37  32 VRB5      30.25F
HAMILTON       MOSUNNY   72  38  29 N6        30.25F
DAYTON         PTSUNNY   68  37  32 W9        30.25F
WRIGHT-PAT AFB PTSUNNY   67  38  33 SW8       30.24F
DAYTON GENERAL MOSUNNY   67  36  31 W8        30.24F
WILMINGTON     MOSUNNY   69  34  27 NW10      30.25F
$$

OHZ036-037-039>041-045>050-054>059-063>069-073>076-082>088-182100-
  CENTRAL AND SOUTHEAST OHIO

CITY           SKY/WX    TMP DP  RH WIND       PRES   REMARKS
COLUMBUS       PTSUNNY   70  35  27 W5        30.24F
OSU AIRPORT    MOSUNNY   68  35  29 NW7       30.24F
BOLTON FIELD   SUNNY     68  37  32 W6        30.25F
RICKENBACK AFB NOT AVBL
NEWARK         PTSUNNY   68  34  28 W9        30.23F
MARION         CLOUDY    64  38  38 W7        30.25F
LANCASTER      PTSUNNY   68  37  32 VRB3      30.24F
ZANESVILLE     PTSUNNY   69  32  25 NW7       30.23F
NEW PHILLY     PTSUNNY   69  34  27 W6        30.23F
$$



USA.gov is the U.S. government's official web portal to all federal, state and local government web resources and services.